Time,TemperatureF,DewpointF,PressureIn,WindDirection,WindDirectionDegrees,WindSpeedMPH,WindSpeedGustMPH,Humidity,HourlyPrecipIn,Conditions,Clouds,dailyrainin,SolarRadiationWatts/m^2,SoftwareType,DateUTC
2013-11-02 08:19:00,0.0,0.0,30.00,NNW,338,6.5,6.5,0,0.00,,---,0.00,0.00,VWS V14.01,2013-11-02 13:19:00,
2013-11-02 08:21:00,0.0,0.0,30.00,NNW,338,5.8,7.8,0,0.00,,---,0.00,0.00,VWS V14.01,2013-11-02 13:21:00,
2013-11-02 08:27:00,41.5,37.1,30.00,NNW,338,6.0,6.0,84,0.00,,---,0.00,0.00,VWS V14.01,2013-11-02 13:27:00,
2013-11-02 08:29:00,41.5,37.1,30.00,NNW,338,4.9,4.9,84,0.00,,---,0.00,0.00,VWS V14.01,2013-11-02 13:29:00,
2013-11-02 08:34:00,41.5,37.1,30.00,NNW,338,5.8,5.8,84,0.00,,---,0.00,0.00,VWS V14.01,2013-11-02 13:34:00,
2013-11-02 08:39:00,41.5,37.1,30.00,NW,315,7.6,10.5,84,0.00,,---,0.00,0.00,VWS V14.01,2013-11-02 13:39:00,
2013-11-02 08:44:00,41.5,37.1,30.00,NW,315,6.9,7.4,84,0.00,,---,0.00,0.00,VWS V14.01,2013-11-02 13:44:00,
2013-11-02 08:50:00,41.7,37.2,30.00,NW,315,8.5,8.5,84,0.00,,---,0.00,0.00,VWS V14.01,2013-11-02 13:50:00,
2013-11-02 08:57:00,41.9,37.4,30.00,NNW,338,8.5,8.5,84,0.00,,---,0.00,0.00,VWS V14.01,2013-11-02 13:57:00,
2013-11-02 09:02:00,42.1,37.3,30.00,NNW,338,8.1,10.7,83,0.00,,---,0.00,0.00,VWS V14.01,2013-11-02 14:02:00,
2013-11-02 09:09:00,42.3,37.5,30.00,NNW,338,5.8,8.1,83,0.00,,---,0.00,0.00,VWS V14.01,2013-11-02 14:09:00,
2013-11-02 09:15:00,42.4,37.7,30.03,NNW,338,7.6,7.6,83,0.00,,---,0.00,0.00,VWS V14.01,2013-11-02 14:15:00,
2013-11-02 09:21:00,42.4,37.7,30.03,NW,315,8.5,9.8,83,0.00,,---,99.99,0.00,VWS V14.01,2013-11-02 14:21:00,
2013-11-02 09:27:00,42.8,37.7,30.03,NNW,338,6.9,11.9,82,0.00,,---,99.99,0.00,VWS V14.01,2013-11-02 14:27:00,
2013-11-02 09:33:00,43.2,37.7,30.03,NNW,338,8.1,8.5,81,0.00,,---,99.99,0.00,VWS V14.01,2013-11-02 14:33:00,
2013-11-02 09:39:00,43.5,38.1,30.03,NNW,338,8.7,8.7,81,0.00,,---,99.99,0.00,VWS V14.01,2013-11-02 14:39:00,
2013-11-02 09:45:00,43.7,37.6,30.03,NNW,338,7.4,7.4,79,0.00,,---,99.99,0.00,VWS V14.01,2013-11-02 14:45:00,
2013-11-02 09:51:00,44.2,38.2,30.03,NW,315,9.8,9.8,79,0.00,,---,99.99,0.00,VWS V14.01,2013-11-02 14:51:00,
2013-11-02 09:56:00,44.4,37.7,30.03,NNW,338,5.8,5.8,77,0.00,,---,99.99,0.00,VWS V14.01,2013-11-02 14:56:00,
2013-11-02 10:02:00,44.8,38.3,30.03,NNW,338,9.6,9.6,78,0.00,,---,99.99,0.00,VWS V14.01,2013-11-02 15:02:00,
2013-11-02 10:07:00,45.3,38.9,30.06,North,0,11.0,11.0,78,0.00,,---,99.99,0.00,VWS V14.01,2013-11-02 15:07:00,
2013-11-02 10:13:00,45.5,38.7,30.06,NNW,338,10.3,11.0,77,0.00,,---,99.99,0.00,VWS V14.01,2013-11-02 15:13:00,
2013-11-02 10:18:00,45.5,38.0,30.06,NNE,22,8.7,8.7,75,0.00,,---,99.99,0.00,VWS V14.01,2013-11-02 15:18:00,
2013-11-02 10:24:00,45.7,37.9,30.06,NNW,338,7.4,14.8,74,0.00,,---,99.99,0.00,VWS V14.01,2013-11-02 15:24:00,
2013-11-02 10:29:00,46.0,37.9,30.06,NNW,338,7.6,9.8,73,0.00,,---,99.99,0.00,VWS V14.01,2013-11-02 15:29:00,
2013-11-02 10:34:00,45.9,36.3,30.06,WNW,292,15.4,15.4,69,0.00,,---,99.99,0.00,VWS V14.01,2013-11-02 15:34:00,
2013-11-02 10:39:00,46.2,36.3,30.09,North,0,8.5,8.5,68,0.00,,---,99.99,0.00,VWS V14.01,2013-11-02 15:39:00,
2013-11-02 10:45:00,46.4,36.8,30.09,NW,315,7.8,7.8,69,0.00,,---,99.99,0.00,VWS V14.01,2013-11-02 15:45:00,
2013-11-02 10:50:00,46.8,37.5,30.09,NNW,338,8.1,8.1,70,0.00,,---,99.99,0.00,VWS V14.01,2013-11-02 15:50:00,
2013-11-02 10:57:00,47.3,38.0,30.09,North,0,7.2,8.5,70,0.00,,---,99.99,0.00,VWS V14.01,2013-11-02 15:57:00,
2013-11-02 11:03:00,47.5,37.5,30.09,North,0,8.1,8.1,68,0.00,,---,99.99,0.00,VWS V14.01,2013-11-02 16:03:00,
2013-11-02 11:09:00,47.8,37.0,30.09,WNW,292,6.5,7.6,66,0.00,,---,99.99,0.00,VWS V14.01,2013-11-02 16:09:00,
2013-11-02 11:14:00,48.0,37.6,30.09,NNW,338,6.0,10.7,67,0.00,,---,99.99,0.00,VWS V14.01,2013-11-02 16:14:00,
2013-11-02 11:20:00,48.2,35.0,30.09,North,0,12.1,12.1,60,0.00,,---,99.99,0.00,VWS V14.01,2013-11-02 16:20:00,
2013-11-02 11:25:00,48.4,36.0,30.09,NW,315,5.4,7.6,62,0.00,,---,99.99,0.00,VWS V14.01,2013-11-02 16:25:00,
2013-11-02 11:31:00,49.1,37.5,30.09,NNW,338,5.4,5.4,64,0.00,,---,99.99,0.00,VWS V14.01,2013-11-02 16:31:00,
2013-11-02 11:37:00,49.3,37.2,30.09,WNW,292,9.8,10.3,63,0.00,,---,99.99,0.00,VWS V14.01,2013-11-02 16:37:00,
2013-11-02 11:42:00,49.5,37.0,30.09,NNW,338,8.1,8.1,62,0.00,,---,99.99,0.00,VWS V14.01,2013-11-02 16:42:00,
2013-11-02 11:47:00,49.6,36.8,30.09,WNW,292,8.1,8.1,61,0.00,,---,99.99,0.00,VWS V14.01,2013-11-02 16:47:00,
2013-11-02 11:53:00,50.2,37.3,30.09,NNW,338,10.5,10.5,61,0.00,,---,99.99,0.00,VWS V14.01,2013-11-02 16:53:00,
2013-11-02 11:59:00,50.5,36.8,30.09,NW,315,7.6,7.6,59,0.00,,---,99.99,0.00,VWS V14.01,2013-11-02 16:59:00,
2013-11-02 12:04:00,50.2,34.7,30.09,WNW,292,8.7,8.7,55,0.00,,---,99.99,0.00,VWS V14.01,2013-11-02 17:04:00,
2013-11-02 12:09:00,50.2,34.7,30.09,NNW,338,9.6,10.5,55,0.00,,---,99.99,0.00,VWS V14.01,2013-11-02 17:09:00,
2013-11-02 12:15:00,51.3,37.0,30.09,NNW,338,8.5,8.5,58,0.00,,---,99.99,0.00,VWS V14.01,2013-11-02 17:15:00,
2013-11-02 12:20:00,51.1,34.1,30.09,North,0,12.3,12.3,52,0.00,,---,99.99,0.00,VWS V14.01,2013-11-02 17:20:00,
2013-11-02 12:25:00,50.4,33.9,30.09,NNW,338,7.8,7.8,53,0.00,,---,99.99,0.00,VWS V14.01,2013-11-02 17:25:00,
2013-11-02 12:31:00,51.1,35.5,30.09,NNW,338,6.5,6.5,55,0.00,,---,99.99,0.00,VWS V14.01,2013-11-02 17:31:00,
2013-11-02 12:37:00,51.4,35.8,30.09,NNW,338,6.0,10.1,55,0.00,,---,99.99,0.00,VWS V14.01,2013-11-02 17:37:00,
2013-11-02 12:42:00,51.3,35.2,30.09,NNE,22,9.2,9.2,54,0.00,,---,99.99,0.00,VWS V14.01,2013-11-02 17:42:00,
2013-11-02 12:47:00,51.6,34.1,30.09,North,0,12.5,12.5,51,0.00,,---,99.99,0.00,VWS V14.01,2013-11-02 17:47:00,
2013-11-02 12:52:00,52.0,34.9,30.12,NNW,338,9.8,9.8,52,0.00,,---,99.99,0.00,VWS V14.01,2013-11-02 17:52:00,
2013-11-02 12:57:00,52.2,34.6,30.12,NNW,338,6.9,9.8,51,0.00,,---,99.99,0.00,VWS V14.01,2013-11-02 17:57:00,
2013-11-02 13:02:00,50.9,32.4,30.12,NNW,338,6.3,9.0,49,0.00,,---,99.99,0.00,VWS V14.01,2013-11-02 18:02:00,
2013-11-02 13:07:00,51.1,32.1,30.12,NNW,338,8.5,8.5,48,0.00,,---,99.99,0.00,VWS V14.01,2013-11-02 18:07:00,
2013-11-02 13:12:00,51.3,32.3,30.09,North,0,6.0,8.7,48,0.00,,---,99.99,0.00,VWS V14.01,2013-11-02 18:12:00,
2013-11-02 13:18:00,51.6,33.1,30.09,NNW,338,7.6,10.1,49,0.00,,---,99.99,0.00,VWS V14.01,2013-11-02 18:18:00,
2013-11-02 13:23:00,51.8,33.3,30.12,NNW,338,8.1,8.7,49,0.00,,---,99.99,0.00,VWS V14.01,2013-11-02 18:23:00,
2013-11-02 13:28:00,52.5,32.3,30.12,WNW,292,7.8,10.7,46,0.00,,---,99.99,0.00,VWS V14.01,2013-11-02 18:28:00,
2013-11-02 13:33:00,52.7,32.5,30.12,North,0,7.8,10.3,46,0.00,,---,99.99,0.00,VWS V14.01,2013-11-02 18:33:00,
2013-11-02 13:38:00,52.7,32.5,30.12,NNW,338,9.2,9.2,46,0.00,,---,99.99,0.00,VWS V14.01,2013-11-02 18:38:00,
2013-11-02 13:44:00,53.4,33.2,30.12,NNW,338,8.7,8.7,46,0.00,,---,99.99,0.00,VWS V14.01,2013-11-02 18:44:00,
2013-11-02 13:49:00,53.6,31.7,30.12,WNW,292,9.8,11.0,43,0.00,,---,99.99,0.00,VWS V14.01,2013-11-02 18:49:00,
2013-11-02 13:55:00,53.4,28.5,30.12,NNE,22,8.1,8.7,38,0.00,,---,99.99,0.00,VWS V14.01,2013-11-02 18:55:00,
2013-11-02 14:00:00,53.8,30.6,30.12,NNW,338,7.4,7.4,41,0.00,,---,99.99,0.00,VWS V14.01,2013-11-02 19:00:00,
2013-11-02 14:06:00,54.0,30.2,30.12,NNE,22,5.4,5.4,40,0.00,,---,99.99,0.00,VWS V14.01,2013-11-02 19:06:00,
2013-11-02 14:11:00,54.3,28.6,30.12,NNE,22,7.8,7.8,37,0.00,,---,99.99,0.00,VWS V14.01,2013-11-02 19:11:00,
2013-11-02 14:18:00,54.3,28.0,30.12,WNW,292,7.8,7.8,36,0.00,,---,99.99,0.00,VWS V14.01,2013-11-02 19:18:00,
2013-11-02 14:23:00,54.3,28.0,30.12,NNE,22,10.5,10.5,36,0.00,,---,99.99,0.00,VWS V14.01,2013-11-02 19:23:00,
2013-11-02 14:28:00,54.3,21.9,30.12,WNW,292,12.1,12.1,28,0.00,,---,99.99,0.00,VWS V14.01,2013-11-02 19:28:00,
2013-11-02 14:34:00,54.5,27.4,30.12,NNW,338,10.5,10.5,35,0.00,,---,99.99,0.00,VWS V14.01,2013-11-02 19:34:00,
2013-11-02 14:40:00,54.7,24.7,30.12,NNW,338,6.5,10.1,31,0.00,,---,99.99,0.00,VWS V14.01,2013-11-02 19:40:00,
2013-11-02 14:45:00,54.9,24.8,30.12,NNW,338,11.9,11.9,31,0.00,,---,99.99,0.00,VWS V14.01,2013-11-02 19:45:00,
2013-11-02 14:51:00,54.9,24.8,30.12,NNW,338,8.5,8.5,31,0.00,,---,99.99,0.00,VWS V14.01,2013-11-02 19:51:00,
2013-11-02 14:56:00,54.9,24.0,30.12,WNW,292,11.9,11.9,30,0.00,,---,99.99,0.00,VWS V14.01,2013-11-02 19:56:00,
2013-11-02 15:02:00,55.0,22.5,30.12,NNW,338,5.6,5.6,28,0.00,,---,99.99,0.00,VWS V14.01,2013-11-02 20:02:00,
2013-11-02 15:07:00,55.2,23.5,30.12,NNW,338,4.9,7.8,29,0.00,,---,99.99,0.00,VWS V14.01,2013-11-02 20:07:00,
2013-11-02 15:12:00,55.4,23.7,30.12,NNW,338,10.7,10.7,29,0.00,,---,99.99,0.00,VWS V14.01,2013-11-02 20:12:00,
2013-11-02 15:17:00,55.4,22.9,30.12,NNW,338,9.6,9.6,28,0.00,,---,99.99,0.00,VWS V14.01,2013-11-02 20:17:00,
2013-11-02 15:23:00,55.2,21.8,30.12,WNW,292,5.8,10.7,27,0.00,,---,99.99,0.00,VWS V14.01,2013-11-02 20:23:00,
2013-11-02 15:28:00,55.4,22.9,30.12,NNW,338,8.1,8.1,28,0.00,,---,99.99,0.00,VWS V14.01,2013-11-02 20:28:00,
2013-11-02 15:34:00,55.4,22.0,30.12,NNW,338,6.0,6.0,27,0.00,,---,99.99,0.00,VWS V14.01,2013-11-02 20:34:00,
2013-11-02 15:40:00,55.8,22.3,30.09,NW,315,6.5,6.5,27,0.00,,---,99.99,0.00,VWS V14.01,2013-11-02 20:40:00,
2013-11-02 15:45:00,55.6,22.1,30.09,NNW,338,10.1,10.1,27,0.00,,---,99.99,0.00,VWS V14.01,2013-11-02 20:45:00,
2013-11-02 15:51:00,55.6,21.3,30.09,NNW,338,8.5,8.5,26,0.00,,---,99.99,0.00,VWS V14.01,2013-11-02 20:51:00,
2013-11-02 15:56:00,55.4,21.1,30.09,North,0,6.3,7.6,26,0.00,,---,99.99,0.00,VWS V14.01,2013-11-02 20:56:00,
2013-11-02 16:01:00,55.4,21.1,30.09,NNW,338,6.0,6.0,26,0.00,,---,99.99,0.00,VWS V14.01,2013-11-02 21:01:00,
2013-11-02 16:08:00,55.4,20.2,30.09,NNW,338,7.6,7.6,25,0.00,,---,99.99,0.00,VWS V14.01,2013-11-02 21:08:00,
2013-11-02 16:13:00,55.4,21.1,30.09,North,0,10.1,10.1,26,0.00,,---,99.99,0.00,VWS V14.01,2013-11-02 21:13:00,
2013-11-02 16:19:00,55.2,21.0,30.09,NNW,338,6.5,6.5,26,0.00,,---,99.99,0.00,VWS V14.01,2013-11-02 21:19:00,
2013-11-02 16:24:00,55.2,21.0,30.09,NNW,338,11.0,11.0,26,0.00,,---,99.99,0.00,VWS V14.01,2013-11-02 21:24:00,
2013-11-02 16:30:00,55.2,20.0,30.09,WNW,292,10.7,10.7,25,0.00,,---,99.99,0.00,VWS V14.01,2013-11-02 21:30:00,
2013-11-02 16:36:00,55.2,21.0,30.09,NW,315,7.4,8.1,26,0.00,,---,99.99,0.00,VWS V14.01,2013-11-02 21:36:00,
2013-11-02 16:41:00,55.4,21.1,30.09,NW,315,7.8,11.0,26,0.00,,---,99.99,0.00,VWS V14.01,2013-11-02 21:41:00,
2013-11-02 16:46:00,55.2,21.0,30.09,NNW,338,6.3,8.7,26,0.00,,---,99.99,0.00,VWS V14.01,2013-11-02 21:46:00,
2013-11-02 16:52:00,55.2,21.0,30.09,West,270,7.4,7.4,26,0.00,,---,99.99,0.00,VWS V14.01,2013-11-02 21:52:00,
2013-11-02 16:58:00,55.2,21.0,30.09,WNW,292,6.3,6.3,26,0.00,,---,99.99,0.00,VWS V14.01,2013-11-02 21:58:00,
2013-11-02 17:04:00,55.0,20.8,30.09,NNE,22,5.8,7.2,26,0.00,,---,99.99,0.00,VWS V14.01,2013-11-02 22:04:00,
2013-11-02 17:10:00,54.9,20.6,30.06,NNW,338,3.6,6.3,26,0.00,,---,99.99,0.00,VWS V14.01,2013-11-02 22:10:00,
2013-11-02 17:16:00,54.7,20.5,30.06,NW,315,4.3,5.6,26,0.00,,---,99.99,0.00,VWS V14.01,2013-11-02 22:16:00,
2013-11-02 17:22:00,54.7,20.5,30.09,NNE,22,3.8,5.6,26,0.00,,---,99.99,0.00,VWS V14.01,2013-11-02 22:22:00,
2013-11-02 17:27:00,54.7,20.5,30.09,NW,315,4.9,7.6,26,0.00,,---,99.99,0.00,VWS V14.01,2013-11-02 22:27:00,
2013-11-02 17:34:00,54.1,20.0,30.09,North,0,5.6,5.6,26,0.00,,---,99.99,0.00,VWS V14.01,2013-11-02 22:34:00,
2013-11-02 17:40:00,53.8,19.7,30.09,North,0,7.2,7.2,26,0.00,,---,99.99,0.00,VWS V14.01,2013-11-02 22:40:00,
2013-11-02 17:46:00,53.6,19.6,30.09,NNW,338,3.4,3.4,26,0.00,,---,99.99,0.00,VWS V14.01,2013-11-02 22:46:00,
2013-11-02 17:52:00,52.9,19.8,30.09,NNW,338,2.7,2.7,27,0.00,,---,99.99,0.00,VWS V14.01,2013-11-02 22:52:00,
2013-11-02 17:58:00,52.9,19.8,30.09,NNW,338,2.0,2.7,27,0.00,,---,99.99,0.00,VWS V14.01,2013-11-02 22:58:00,
2013-11-02 18:03:00,51.6,18.8,30.06,NW,315,1.3,2.0,27,0.00,,---,99.99,0.00,VWS V14.01,2013-11-02 23:03:00,
2013-11-02 18:10:00,51.1,18.3,30.06,NW,315,0.0,0.0,27,0.00,,---,99.99,0.00,VWS V14.01,2013-11-02 23:10:00,
2013-11-02 18:16:00,50.7,18.0,30.06,WNW,292,0.0,0.0,27,0.00,,---,99.99,0.00,VWS V14.01,2013-11-02 23:16:00,
2013-11-02 18:21:00,49.8,18.0,30.06,WNW,292,0.0,0.0,28,0.00,,---,99.99,0.00,VWS V14.01,2013-11-02 23:21:00,
2013-11-02 18:28:00,49.6,17.9,30.06,WNW,292,0.0,0.0,28,0.00,,---,99.99,0.00,VWS V14.01,2013-11-02 23:28:00,
2013-11-02 18:34:00,48.9,18.1,30.06,WNW,292,0.0,0.0,29,0.00,,---,99.99,0.00,VWS V14.01,2013-11-02 23:34:00,
2013-11-02 18:39:00,48.6,17.8,30.06,WNW,292,0.0,0.0,29,0.00,,---,99.99,0.00,VWS V14.01,2013-11-02 23:39:00,
2013-11-02 18:44:00,48.4,18.4,30.06,WNW,292,0.0,0.0,30,0.00,,---,99.99,0.00,VWS V14.01,2013-11-02 23:44:00,
2013-11-02 18:50:00,48.0,18.8,30.06,WNW,292,0.0,0.0,31,0.00,,---,99.99,0.00,VWS V14.01,2013-11-02 23:50:00,
2013-11-02 18:55:00,47.7,18.5,30.06,WNW,292,0.0,0.0,31,0.00,,---,99.99,0.00,VWS V14.01,2013-11-02 23:55:00,
2013-11-02 19:04:00,47.3,19.0,30.06,WNW,292,0.0,0.0,32,0.00,,---,99.99,0.00,VWS V14.01,2013-11-03 00:04:00,
2013-11-02 19:10:00,47.3,19.7,30.06,SSW,202,2.7,57.3,33,0.00,,---,99.99,0.00,VWS V14.01,2013-11-03 00:10:00,
2013-11-02 19:16:00,46.2,19.4,30.06,SSW,202,2.2,2.7,34,0.00,,---,99.99,0.00,VWS V14.01,2013-11-03 00:16:00,
2013-11-02 19:21:00,45.9,20.4,30.03,SSW,202,0.0,1.1,36,0.00,,---,99.99,0.00,VWS V14.01,2013-11-03 00:21:00,
2013-11-02 19:26:00,46.0,21.2,30.03,SSW,202,0.0,0.0,37,0.00,,---,99.99,0.00,VWS V14.01,2013-11-03 00:26:00,
2013-11-02 19:32:00,46.0,21.2,30.03,SSW,202,0.0,0.0,37,0.00,,---,99.99,0.00,VWS V14.01,2013-11-03 00:32:00,